Regional Weather Roundup
Issued by NWS

Home | Current Version | Previous Version | Text Only | Print | Product List | Glossary Off
Versions: 1 2 3 4 5 6 7 8 9 10 11 12 13 14 15 16 17 18 19 20 21 22 23 24 25 26 27 28 29 30 31 32 33 34 35 36 37 38 39 40 41 42 43 44 45 46 47 48 49 50

000
ASUS43 KLMK 010810
RWRKY
KENTUCKY REGIONAL WEATHER ROUNDUP
NATIONAL WEATHER SERVICE LOUISVILLE KY
400 AM EDT WED JUL 01 2015

NOTE "FAIR" INDICATES FEW OR NO CLOUDS BELOW 12,000 FEET
WITH NO SIGNIFICANT WEATHER AND/OR OBSTRUCTIONS TO VISIBILITY.

KYZ001>023-026-027-061>063-070>075-010900-
WESTERN AND SOUTH CENTRAL KENTUCKY

CITY           SKY/WX    TMP DP  RH WIND       PRES   REMARKS
PADUCAH        PTCLDY    73  68  84 SW5       29.90S
HENDERSON      MOCLDY    70  64  83 CALM      29.88S
OWENSBORO      PTCLDY    70  68  93 CALM      29.90R
HOPKINSVILLE   MOCLDY    73  70  89 SW7       29.92F
BOWLING GREEN  CLEAR     73  68  84 SW8       29.93S
GLASGOW        PTCLDY    69  69 100 CALM      29.93F
$$

KYZ024-025-028>034-038-045-046-053-010900-
NORTH CENTRAL KENTUCKY

CITY           SKY/WX    TMP DP  RH WIND       PRES   REMARKS
LOUISVILLE/SDF MOCLDY    68  63  84 SE7       29.89S
LOUISVILLE/LOU MOCLDY    67  63  87 SE5       29.90S
FORT KNOX      PTCLDY    67  65  93 SW3       29.89S
$$

KYZ035>037-039>044-047>052-055>060-089>105-010900-
NORTHEAST KENTUCKY

CITY           SKY/WX    TMP DP  RH WIND       PRES   REMARKS
LEXINGTON      CLOUDY    67  64  90 SW9       29.90F
COVINGTON      CLEAR     63  61  93 CALM      29.89R FOG
FRANKFORT      PTCLDY    65  62  90 SW9       29.90R FOG
$$

KYZ054-064>069-076>088-106>120-010900-
SOUTHEAST KENTUCKY

CITY           SKY/WX    TMP DP  RH WIND       PRES   REMARKS
JACKSON        PTCLDY    61  58  90 CALM      29.94S
LONDON         PTCLDY    66  61  84 CALM      29.96R HAZE
SOMERSET       PTCLDY    64  64 100 CALM      29.96S FOG
MIDDLESBORO    CLOUDY    65  65 100 CALM      29.98S FOG
MONTICELLO     MOSUNNY   69  69 100 CALM      29.98S
$$



USA.gov is the U.S. government's official web portal to all federal, state and local government web resources and services.